CAPE
0 0 0 0 6 6 217 283 135 46 52 87 886 715 226 287 358 85 47 9 12 5 37 17 28 32 51 70 40 68 27 47 32 24 25 15 18 44 33 69 55 51 38 32
0 0 4 6 7 205 257 215 188 12 9 214 642 434 293 369 381 234 147 46 75 18 30 2 16 23 26 24 68 30 15 46 39 40 54 46 51 55 51 37 53 76 79 74
44 22 72 21 100 59 18 76 144 25 0 346 471 204 54 178 449 293 136 54 31 81 24 10 13 17 30 21 18 36 18 20 45 68 45 53 30 34 19 34 48 64 85 84
42 56 36 10 77 31 29 118 47 67 91 97 69 77 13 134 355 127 114 1 71 85 10 52 38 59 29 6 38 76 4 7 7 57 77 105 82 28 53 37 41 151 153 163
104 49 130 162 166 57 53 116 66 79 199 124 91 102 15 19 192 155 68 3 8 93 13 5 14 27 34 35 64 68 32 16 23 67 87 92 81 54 71 83 129 149 190 229
40 8 1 91 207 188 189 226 46 34 388 627 376 263 29 2 84 278 181 118 62 17 16 24 27 48 50 39 14 13 46 29 52 75 95 119 101 104 86 107 100 91 80 210
126 27 38 3 86 353 52 30 33 4 184 243 271 23 0 159 410 394 480 161 114 54 37 17 36 36 22 27 17 29 14 17 28 64 91 89 98 101 128 129 98 147 30 121
36 120 99 38 90 52 1 7 47 103 238 90 161 12 72 140 210 188 100 98 113 42 11 8 10 20 19 16 28 7 13 16 63 24 68 89 92 96 75 87 120 101 178 252
17 107 44 73 44 20 15 57 82 204 208 234 0 25 10 64 234 60 172 277 196 64 23 22 5 8 18 31 22 8 3 27 37 44 72 123 127 116 95 149 173 167 333 194
46 73 46 12 53 32 0 14 66 153 267 47 48 16 56 89 69 189 425 362 281 99 28 12 12 22 40 14 13 9 9 14 32 65 56 109 73 114 118 123 174 165 297 311
57 15 0 14 1 26 58 211 210 278 131 167 102 91 47 37 45 24 83 184 164 59 32 12 13 9 21 7 4 28 4 11 34 52 46 145 181 92 113 136 123 187 245 232
0 0 88 72 11 25 94 164 315 471 291 6 141 34 6 0 0 0 1 7 44 0 17 14 10 9 7 1 1 3 19 7 33 9 99 144 172 176 190 165 152 161 91 63
0 25 0 77 182 69 42 14 6 223 168 90 169 0 0 0 0 0 0 0 5 5 10 11 13 4 2 6 1 0 12 22 28 39 108 148 196 177 155 155 137 170 104 28
221 41 119 102 20 66 18 0 0 1 70 120 4 28 0 0 0 0 0 1 9 16 5 8 13 13 9 7 0 0 1 12 40 77 84 154 131 149 109 165 89 134 69 75
742 220 39 0 0 0 1 0 0 2 3 25 35 1 0 0 0 1 6 12 18 17 9 10 9 23 17 13 0 0 7 38 40 77 100 159 196 161 144 101 174 222 74 74
103 107 75 15 0 0 0 0 0 0 0 0 0 0 1 2 0 4 6 6 4 17 15 1 12 19 33 15 2 20 26 51 57 34 143 120 160 82 86 135 72 121 216 132
382 424 165 77 16 20 6 1 14 1 0 0 1 1 12 9 14 30 31 7 1 7 13 12 11 30 39 24 10 20 63 82 69 123 126 112 99 76 85 43 102 158 144 150
339 375 437 235 141 4 6 6 15 15 2 17 26 8 4 21 46 14 4 6 2 8 7 7 13 44 34 9 17 34 55 66 53 122 145 109 98 123 134 76 119 130 185 136
625 390 313 239 134 9 6 3 0 14 32 20 22 26 16 9 33 2 20 19 8 0 7 0 3 27 54 14 9 34 45 28 62 100 97 76 34 92 117 128 178 198 149 141
190 695 180 175 79 28 3 36 8 62 131 41 69 72 37 11 73 196 57 34 25 78 22 1 0 13 43 27 40 47 41 34 66 87 131 108 129 104 138 172 180 353 223 105
488 330 273 63 91 42 80 131 96 88 125 216 106 170 175 197 173 220 378 165 143 116 199 114 24 11 28 46 54 42 52 64 93 49 106 94 149 116 165 160 293 241 190 164
36 238 221 194 128 93 4 58 114 144 106 98 30 77 110 119 91 149 111 93 233 192 145 51 85 99 92 38 32 35 60 50 106 97 75 109 112 44 97 115 287 159 174 165
52 140 83 143 78 89 28 30 64 17 8 2 3 5 40 30 38 43 75 37 111 166 41 78 12 211 341 46 33 42 80 74 68 107 82 113 93 183 180 171 219 169 146 116
63 123 236 137 13 6 7 12 2 0 0 0 0 16 38 64 57 35 108 209 192 255 278 230 270 56 29 125 116 106 83 65 50 105 150 187 122 183 230 166 169 11 83 69
2 45 46 19 57 55 14 0 0 0 0 0 8 15 27 54 43 52 36 100 149 199 229 386 485 262 171 274 103 116 108 144 70 141 146 231 181 184 199 173 177 87 139 30
0 10 22 11 14 1 8 7 12 7 6 11 21 19 26 37 46 69 129 245 154 70 175 254 436 554 581 493 318 109 113 155 132 218 144 225 182 237 31 16 140 61 20 24
CIN
0 0 0 0 -2 -1 -7 -84 -193 -45 -33 -71 -15 -44 -7 -85 -30 -37 -44 -3 0 0 -4 -27 -28 -22 -21 -14 0 -1 -1 -1 -2 -1 -1 -1 0 -4 -5 -2 -4 -5 -6 -2
0 0 -1 -3 -1 -15 -24 -22 -109 -318 -300 -52 -40 -18 -13 -69 -12 -15 -16 -14 -2 -35 -9 -34 -13 -21 -10 -2 0 -2 -5 -6 0 -1 -5 -3 -2 -5 -20 -9 -9 -7 -2 -3
-1 -15 -14 -20 -22 -107 -154 -46 -56 -105 0 -34 -16 -50 -20 -4 -3 -2 0 0 -6 -13 -19 -9 -10 -5 -3 -1 -1 -5 -19 -12 -3 -3 -4 -4 -7 -6 -14 -5 -11 -9 -2 -1
-34 -7 -19 -6 -49 -91 -50 -6 -1 -8 -19 -24 -77 -63 -6 -61 -6 -7 0 -1 -26 -15 -4 -8 -3 -4 -2 -2 -2 -13 -7 -7 -20 -3 -2 -2 -3 -1 -2 -11 -15 -9 -4 -2
-26 -72 -62 -9 -6 -4 -3 -16 -7 -1 -108 -95 -85 -77 0 -4 -3 -28 -3 -1 -3 -16 0 -9 -17 -5 -6 -2 -3 -34 -10 -15 -13 0 0 -7 -1 -1 -2 -9 -8 -6 -11 -2
-90 -104 -31 -111 -139 -26 -7 -10 -23 -5 -12 -18 -2 -3 -2 -7 -1 -9 -8 -37 -18 -6 -7 0 -13 -8 -2 -3 -9 -56 -6 -1 -1 -1 -2 -1 0 0 -8 -2 -4 -5 -33 -7
-74 -133 -54 -14 -220 -34 -5 -10 0 0 -7 -4 -35 -70 0 -28 -7 -13 -7 -6 -1 0 -2 -38 -25 -9 0 -2 -6 -9 -10 -4 -10 -5 -3 -2 0 -2 -4 -6 -11 -3 -19 -11
-4 -60 -125 -11 -74 0 -2 -12 -1 -1 0 -2 -149 -59 -23 -19 -46 -39 -13 -16 -5 -20 -3 -1 -1 -10 -12 -3 -9 -15 -12 -4 -1 -23 -6 0 -1 -3 -1 -1 -12 -10 -5 -8
-9 -5 -1 -2 -14 -3 0 0 -9 -6 0 -9 0 -41 -62 -32 -45 -92 -104 -35 -61 -88 -11 -1 -1 -1 -16 -5 -20 -17 -17 0 -6 -3 -8 -3 -2 -1 -1 -3 -9 -8 -4 -4
-14 -2 -13 -1 -3 -11 0 -8 -17 -2 -10 -59 -15 -13 -4 -11 -2 -3 -3 -5 -13 -20 -65 -21 -11 -19 -4 -33 -37 -22 -2 -5 -11 -15 -12 -3 -13 -2 -1 -4 -4 -8 -3 -2
-49 -37 0 -12 -5 -15 -22 -39 -22 -8 -119 -1 -1 -17 -62 -4 -19 -43 -1 -18 -8 -16 -1 0 -15 -1 -3 -14 -2 -2 -4 -6 -4 -6 -21 -6 -2 -9 -9 -7 -2 -1 -3 -2
0 0 -7 -19 -18 -50 -86 -63 -10 -6 -1 -70 -3 -9 -25 0 0 -5 -4 -3 -48 0 0 -1 0 -3 -2 -9 -13 -4 -8 -9 -6 0 -8 -6 -5 -2 -2 -2 -2 -5 -1 -2
0 -14 0 -6 -11 -51 -41 -49 -41 -6 -39 -23 -9 0 0 -2 0 0 0 0 -1 -4 -3 -7 -12 -11 -14 -18 -7 0 -13 -2 -8 -11 -7 -2 -6 -6 -4 -2 -4 -1 -2 -2
-62 -22 -7 -1 -8 -8 -5 0 0 -22 -7 -5 -4 -1 0 0 0 0 0 -1 -1 -5 -12 -12 -9 -5 -20 -25 -5 0 -1 0 -12 -10 -11 -2 -15 -3 -4 -5 -15 -2 -9 -5
-3 -15 -17 0 0 0 0 0 0 0 0 -1 0 -1 0 0 0 0 0 0 0 -3 -1 -1 -1 -2 -14 -16 0 0 -3 -4 -19 -5 -11 -1 -3 -22 -1 -11 -5 -3 -13 -15
-15 -11 -8 -55 0 0 0 0 0 0 0 0 0 0 -1 -1 0 0 0 -1 0 0 -2 -1 0 -1 -5 -14 -8 -2 -4 -6 -14 -26 -3 -3 -22 -11 -29 -21 -29 -4 -1 -15
-5 -2 -3 -26 -15 -1 -8 0 0 -1 0 0 0 -1 -1 -1 -1 -6 -7 0 -1 0 -1 -1 0 -4 -3 -18 -9 -1 -6 -3 -17 -13 -7 -11 -11 -12 -2 -30 -21 -7 -11 -10
-8 -5 -10 0 -2 -1 0 -1 0 -1 -1 -1 -1 -6 -1 -7 -4 -7 -2 -4 -1 0 0 0 -1 -13 -18 -9 -7 -10 -12 -5 -15 -6 -5 -4 -11 -18 -24 -2 -5 -2 -2 -7
-9 -5 -1 -1 -2 0 -1 -1 0 -1 -1 -20 -4 -1 -1 -14 -2 -3 0 -1 -1 0 -2 0 -1 -3 -18 -12 -11 -17 -8 -7 -9 -4 -5 -8 -40 -17 -11 -26 -7 -2 -4 -4
-3 -2 -10 -5 0 0 -2 -1 0 -1 -5 -70 -15 -8 -9 -17 -7 0 -15 -40 -21 -8 -4 -2 0 -3 -5 -9 -17 -14 -17 -20 -4 -5 -3 -15 -25 -12 -11 -12 -8 -2 -5 -9
-3 -4 -1 -3 -4 -5 -3 -5 -6 -1 0 -6 -21 -3 0 -2 -13 -12 -1 -1 -15 -23 -28 -2 -7 -4 -8 -8 -10 -11 -11 -4 -4 -10 -17 -12 -5 -26 -18 -12 -4 -8 -7 -2
-2 -1 -3 -1 -8 0 -4 -14 -6 -1 0 -8 -15 -2 -1 0 -1 -3 -25 -51 -17 -22 -25 -62 -12 -18 -23 -12 -5 -6 -14 -21 -8 -19 -25 -15 -22 -27 -4 -32 -17 -16 -23 -15
-7 -3 -21 -2 -1 -4 -4 -8 -5 0 -1 0 -6 0 -1 -27 -16 -8 -1 -12 -5 -13 -63 -50 -131 -3 -11 -47 -13 -7 -7 -16 -9 -10 -33 -12 -30 -3 -19 -30 -12 -10 -45 -37
-40 -6 -2 -4 -3 -1 -2 -1 -3 0 0 0 0 -1 0 -1 -3 -7 0 0 0 -3 0 0 -9 -52 -61 -14 -6 -12 -5 -23 -16 -3 -12 -8 -28 -9 -10 -7 -4 -4 -23 -45
-6 -35 -23 -4 -1 -3 -3 0 0 0 0 0 0 -1 -1 -3 -8 -2 -1 -3 0 0 0 0 0 -1 -11 -5 -50 -9 -9 -16 -23 -13 -11 -7 -5 -20 -12 -13 -7 -53 -30 -2
-1 -5 0 0 0 0 0 -1 0 0 0 0 0 -1 -1 -1 -1 0 0 0 -3 -7 0 0 0 0 0 -1 -10 -21 -29 -15 -20 -9 -19 -12 -3 -13 -32 0 -11 -27 -3 -11
Wind_Speed
nan nan nan nan nan nan 32 42 57 nan nan nan 30 57 44 65 37 nan nan nan nan nan nan nan nan nan nan nan nan nan nan nan nan nan nan nan nan nan nan nan nan nan nan nan
nan nan nan nan nan 29 35 30 23 nan nan 38 46 57 46 50 39 36 43 nan nan nan nan nan nan nan nan nan nan nan nan nan nan nan nan nan nan nan nan nan nan nan nan nan
nan nan nan nan 24 nan nan nan 24 nan nan 34 28 41 nan 9 25 28 32 nan nan nan nan nan nan nan nan nan nan nan nan nan nan nan nan nan nan nan nan nan nan nan nan nan
nan nan nan nan nan nan nan 32 nan nan nan nan nan nan nan 44 59 33 27 nan nan nan nan nan nan nan nan nan nan nan nan nan nan nan nan 23 nan nan nan nan nan 32 35 32
22 nan 28 23 21 nan nan 23 nan nan 35 39 nan 30 nan nan 19 33 nan nan nan nan nan nan nan nan nan nan nan nan nan nan nan nan nan nan nan nan nan nan 27 33 31 23
nan nan nan nan 34 6 21 13 nan nan 31 32 17 26 nan nan nan 24 30 32 nan nan nan nan nan nan nan nan nan nan nan nan nan nan nan 24 23 22 nan 25 29 nan nan 14
23 nan nan nan nan 20 nan nan nan nan 10 26 52 nan nan 31 42 37 32 34 34 nan nan nan nan nan nan nan nan nan nan nan nan nan nan nan nan 20 22 25 nan 23 nan 7
nan 39 nan nan nan nan nan nan nan 19 11 nan 43 nan nan 13 19 19 22 nan 36 nan nan nan nan nan nan nan nan nan nan nan nan nan nan nan nan nan nan nan 22 24 14 9
nan 13 nan nan nan nan nan nan nan 18 9 28 nan nan nan nan 39 nan 31 34 40 nan nan nan nan nan nan nan nan nan nan nan nan nan nan 16 17 17 nan 20 23 24 18 8
nan nan nan nan nan nan nan nan nan 16 21 nan nan nan nan nan nan 41 43 35 38 nan nan nan nan nan nan nan nan nan nan nan nan nan nan 13 nan 17 19 18 18 19 20 13
nan nan nan nan nan nan nan 21 16 29 29 12 4 nan nan nan nan nan nan 44 44 nan nan nan nan nan nan nan nan nan nan nan nan nan nan 12 13 nan 17 18 18 18 20 19
nan nan nan nan nan nan nan 23 19 19 19 nan 16 nan nan nan nan nan nan nan nan nan nan nan nan nan nan nan nan nan nan nan nan nan nan 12 11 14 15 17 17 16 nan nan
nan nan nan nan 22 nan nan nan nan 28 21 nan 16 nan nan nan nan nan nan nan nan nan nan nan nan nan nan nan nan nan nan nan nan nan 7 8 7 13 14 14 15 18 18 nan
11 nan 23 18 nan nan nan nan nan nan nan 11 nan nan nan nan nan nan nan nan nan nan nan nan nan nan nan nan nan nan nan nan nan nan nan 7 8 12 11 12 nan 15 nan nan
8 18 nan nan nan nan nan nan nan nan nan nan nan nan nan nan nan nan nan nan nan nan nan nan nan nan nan nan nan nan nan nan nan nan 8 7 8 6 9 14 11 12 nan nan
12 14 nan nan nan nan nan nan nan nan nan nan nan nan nan nan nan nan nan nan nan nan nan nan nan nan nan nan nan nan nan nan nan nan 6 10 12 nan nan 2 nan 10 10 12
14 15 14 nan nan nan nan nan nan nan nan nan nan nan nan nan nan nan nan nan nan nan nan nan nan nan nan nan nan nan nan nan nan 5 5 10 nan nan nan nan 8 2 5 10
16 18 12 15 15 nan nan nan nan nan nan nan nan nan nan nan nan nan nan nan nan nan nan nan nan nan nan nan nan nan nan nan nan 6 4 6 nan 4 3 nan 6 3 6 7
16 16 17 16 19 nan nan nan nan nan nan nan nan nan nan nan nan nan nan nan nan nan nan nan nan nan nan nan nan nan nan nan nan 5 nan nan nan nan 5 2 6 7 8 9
19 18 15 19 nan nan nan nan nan nan 29 nan nan nan nan nan nan 17 nan nan nan nan nan nan nan nan nan nan nan nan nan nan nan nan 7 12 7 1 4 5 3 3 8 11
9 10 3 nan nan nan nan 20 nan nan 20 25 29 29 26 27 26 13 24 23 23 28 27 20 nan nan nan nan nan nan nan nan nan nan 8 nan 5 3 0 3 2 3 5 6
nan 8 14 22 19 nan nan nan 32 24 24 nan nan nan 28 25 nan 25 31 nan 18 26 21 nan nan nan nan nan nan nan nan nan 14 nan nan 10 11 nan nan 7 5 5 5 5
nan 20 nan 23 nan nan nan nan nan nan nan nan nan nan nan nan nan nan nan nan 26 25 nan nan nan 13 25 nan nan nan nan nan nan 14 nan 8 nan 8 11 8 8 10 7 4
nan 22 25 29 nan nan nan nan nan nan nan nan nan nan nan nan nan nan 37 34 32 28 27 26 22 nan nan 19 19 24 nan nan nan 14 13 12 11 11 14 11 12 nan nan nan
nan nan nan nan nan nan nan nan nan nan nan nan nan nan nan nan nan nan nan 33 31 26 27 23 23 23 21 16 20 19 23 23 nan 15 14 15 12 12 13 14 14 nan 15 nan
nan nan nan nan nan nan nan nan nan nan nan nan nan nan nan nan nan nan 26 26 27 nan 21 22 22 25 24 18 21 27 23 21 20 18 18 16 15 18 nan nan 16 nan nan nan
Wind_Direction
nan nan nan nan nan nan 268 267 296 nan nan nan 318 314 317 317 328 nan nan nan nan nan nan nan nan nan nan nan nan nan nan nan nan nan nan nan nan nan nan nan nan nan nan nan
nan nan nan nan nan 236 245 272 293 nan nan 328 352 305 315 312 322 325 322 nan nan nan nan nan nan nan nan nan nan nan nan nan nan nan nan nan nan nan nan nan nan nan nan nan
nan nan nan nan 269 nan nan nan 318 nan nan 349 298 295 nan 312 323 305 300 nan nan nan nan nan nan nan nan nan nan nan nan nan nan nan nan nan nan nan nan nan nan nan nan nan
nan nan nan nan nan nan nan 328 nan nan nan nan nan nan nan 325 315 296 316 nan nan nan nan nan nan nan nan nan nan nan nan nan nan nan nan 323 nan nan nan nan nan 324 315 313
232 nan 207 143 257 nan nan 282 nan nan 296 335 nan 305 nan nan 332 345 nan nan nan nan nan nan nan nan nan nan nan nan nan nan nan nan nan nan nan nan nan nan 329 328 326 330
nan nan nan nan 197 196 298 297 nan nan 336 320 311 324 nan nan nan 342 351 348 nan nan nan nan nan nan nan nan nan nan nan nan nan nan nan 331 328 335 nan 335 342 nan nan 338
309 nan nan nan nan 87 nan nan nan nan 288 300 309 nan nan 308 306 328 336 342 325 nan nan nan nan nan nan nan nan nan nan nan nan nan nan nan nan 349 350 335 nan 354 nan 352
nan 334 nan nan nan nan nan nan nan 299 318 nan 272 nan nan 282 329 341 324 nan 330 nan nan nan nan nan nan nan nan nan nan nan nan nan nan nan nan nan nan nan 355 13 10 10
nan 235 nan nan nan nan nan nan nan 246 79 283 nan nan nan nan 346 nan 335 338 321 nan nan nan nan nan nan nan nan nan nan nan nan nan nan 339 341 353 nan 1 17 18 22 39
nan nan nan nan nan nan nan nan nan 289 293 nan nan nan nan nan nan 326 328 327 329 nan nan nan nan nan nan nan nan nan nan nan nan nan nan 341 nan 353 5 7 21 26 25 39
nan nan nan nan nan nan nan 278 300 309 315 3 252 nan nan nan nan nan nan 328 332 nan nan nan nan nan nan nan nan nan nan nan nan nan nan 348 357 nan 14 26 26 29 35 46
nan nan nan nan nan nan nan 289 296 321 288 nan 310 nan nan nan nan nan nan nan nan nan nan nan nan nan nan nan nan nan nan nan nan nan nan 337 351 353 7 26 37 39 nan nan
nan nan nan nan 283 nan nan nan nan 302 307 nan 261 nan nan nan nan nan nan nan nan nan nan nan nan nan nan nan nan nan nan nan nan nan 4 335 358 350 7 9 24 43 46 nan
1 nan 305 296 nan nan nan nan nan nan nan 278 nan nan nan nan nan nan nan nan nan nan nan nan nan nan nan nan nan nan nan nan nan nan nan 351 356 7 355 4 nan 35 nan nan
309 305 nan nan nan nan nan nan nan nan nan nan nan nan nan nan nan nan nan nan nan nan nan nan nan nan nan nan nan nan nan nan nan nan 13 2 346 5 2 3 16 43 nan nan
313 328 nan nan nan nan nan nan nan nan nan nan nan nan nan nan nan nan nan nan nan nan nan nan nan nan nan nan nan nan nan nan nan nan 52 354 16 nan nan 42 nan 35 68 79
329 341 326 nan nan nan nan nan nan nan nan nan nan nan nan nan nan nan nan nan nan nan nan nan nan nan nan nan nan nan nan nan nan 15 28 14 nan nan nan nan 51 60 82 85
326 329 338 331 345 nan nan nan nan nan nan nan nan nan nan nan nan nan nan nan nan nan nan nan nan nan nan nan nan nan nan nan nan 6 351 346 nan 343 63 nan 32 61 95 93
323 331 325 327 323 nan nan nan nan nan nan nan nan nan nan nan nan nan nan nan nan nan nan nan nan nan nan nan nan nan nan nan nan 4 nan nan nan nan 28 297 134 126 119 111
335 341 326 338 nan nan nan nan nan nan 320 nan nan nan nan nan nan 288 nan nan nan nan nan nan nan nan nan nan nan nan nan nan nan nan 311 309 333 339 71 352 68 139 125 115
354 313 360 nan nan nan nan 273 nan nan 304 292 298 297 293 303 313 311 293 309 309 305 291 314 nan nan nan nan nan nan nan nan nan nan 302 nan 293 291 346 165 222 211 155 164
nan 301 282 285 299 nan nan nan 303 312 296 nan nan nan 294 290 nan 280 282 nan 278 291 301 nan nan nan nan nan nan nan nan nan 301 nan nan 302 274 nan nan 237 196 242 223 178
nan 286 nan 296 nan nan nan nan nan nan nan nan nan nan nan nan nan nan nan nan 291 287 nan nan nan 305 311 nan nan nan nan nan nan 298 nan 274 nan 260 239 232 229 221 228 234
nan 283 310 316 nan nan nan nan nan nan nan nan nan nan nan nan nan nan 283 283 282 276 268 269 281 nan nan 291 309 304 nan nan nan 299 290 268 263 255 246 227 242 nan nan nan
nan nan nan nan nan nan nan nan nan nan nan nan nan nan nan nan nan nan nan 294 285 277 269 261 256 258 284 320 295 298 298 296 nan 286 284 286 263 264 254 240 245 nan 240 nan
nan nan nan nan nan nan nan nan nan nan nan nan nan nan nan nan nan nan 295 289 284 nan 271 265 247 242 257 267 282 274 281 293 289 280 275 277 267 256 nan nan 245 nan nan nan